Location: Four Corners
(38.2757°N, 122.4608°W)
Time: 12:45:46
(UTC+00:00)

Cosmos 1862 Rocket - Pass Details

Date: 08 December 2019
Orbit: 604 x 633 km, 82.5° (Epoch: 19 January)

Event Time Altitude Azimuth Distance (km) Brightness Sun altitude
Rises 01:35:57 0° 181° (S) 2,847 7.3 -9.1°
Reaches altitude 10° 01:38:09 10° 179° (S) 1,951 6.4 -9.5°
Maximum altitude 01:42:27 72° 95° (E) 643 3.5 -10.3°
Drops below altitude 10° 01:46:49 10° 11° (NNE) 1,981 5.8 -11.1°
Sets 01:49:04 0° 10° (N) 2,896 6.7 -11.5°
